Cloud_Cover
4 84 94 6 94 94 35 86 100 100 100 95 88 100 98 100 100 82 50 45 40 24
0 5 5 25 99 94 98 88 100 100 100 100 100 99 99 86 96 82 84 61 42 30
5 5 7 40 100 88 90 100 100 80 100 100 100 100 83 72 38 26 81 87 89 98
82 64 5 28 54 41 100 100 100 100 100 99 71 76 97 93 98 80 87 60 84 100
93 94 91 100 94 100 63 100 100 44 100 84 97 96 58 92 59 13 75 100 100 99
100 85 100 93 100 27 74 95 99 100 89 99 78 91 58 11 78 93 91 97 100 98
100 98 97 100 60 99 100 100 81 99 94 100 100 84 93 100 82 75 89 44 7 5
99 100 100 100 100 100 76 100 100 94 100 100 88 31 62 42 72 10 1 2 5 5
100 100 100 100 100 100 100 100 100 100 100 100 100 100 100 100 10 5 5 5 5 5
100 100 100 100 100 100 100 100 100 98 83 96 100 100 98 7 5 5 5 5 5 30
100 100 100 99 100 100 100 100 94 52 71 86 95 6 5 5 5 5 5 5 5 79
100 100 100 100 100 100 98 92 75 58 67 26 5 0 0 5 5 5 5 5 5 65
100 98 92 100 100 72 91 15 6 56 15 5 0 0 5 5 19 16 5 5 5 14
96 88 90 79 89 51 9 26 32 6 5 0 0 0 5 6 37 15 72 97 34 7